This is the latest recevied weather packets stored in our database for station/object KD0ISH. If no packets are shown the sender has not sent any weather packets the latest 10 day(s).
| Time | Temp. | Humidity | Pressure | Rain* | Wind** | Luminosity | Snow |
|---|---|---|---|---|---|---|---|
| 1777819805 | 17.22° C | 56% | 1018.2 hPa | 0 mm | - | 44 W/m² | - |
| 1777819503 | 17.22° C | 57% | 1018.2 hPa | 0 mm | - | 45 W/m² | - |
| 1777819201 | 16.67° C | 58% | 1018.2 hPa | 0 mm | - | 45 W/m² | - |
| 1777818897 | 16.11° C | 59% | 1018.3 hPa | 0 mm | - | 43 W/m² | - |
| 1777818593 | 15.56° C | 61% | 1018.3 hPa | 0 mm | - | 42 W/m² | - |
| 1777818291 | 15.56° C | 60% | 1018.4 hPa | 0 mm | - | 45 W/m² | - |
| 1777817987 | 15° C | 60% | 1018.5 hPa | 0 mm | - | 43 W/m² | - |
| 1777817684 | 15° C | 61% | 1018.4 hPa | 0 mm | - | 43 W/m² | - |
| 1777817381 | 14.44° C | 61% | 1018.2 hPa | 0 mm | - | 86 W/m² | - |
| 1777817078 | 14.44° C | 61% | 1018.3 hPa | 0 mm | - | 58 W/m² | - |
| 1777816773 | 13.89° C | 61% | 1018.4 hPa | 0 mm | - | 103 W/m² | - |
| 1777816466 | 13.89° C | 61% | 1018.4 hPa | 0 mm | - | 42 W/m² | - |
| 1777816164 | 13.89° C | 62% | 1018.5 hPa | 0 mm | - | 41 W/m² | - |
| 1777815861 | 13.33° C | 62% | 1018.5 hPa | 0 mm | - | 42 W/m² | - |
| 1777815558 | 13.33° C | 61% | 1018.4 hPa | 0 mm | - | 120 W/m² | - |
| 1777815257 | 12.78° C | 62% | 1018.5 hPa | 0 mm | - | 43 W/m² | - |
| 1777814951 | 12.78° C | 63% | 1018.6 hPa | 0 mm | - | 239 W/m² | - |
| 1777814648 | 12.78° C | 63% | 1018.8 hPa | 0 mm | - | 181 W/m² | - |
| 1777814345 | 12.78° C | 64% | 1018.7 hPa | 0 mm | - | 216 W/m² | - |
| 1777814042 | 12.22° C | 65% | 1018.7 hPa | 0 mm | - | 200 W/m² | - |
| 1777813739 | 11.67° C | 66% | 1018.8 hPa | 0 mm | - | 182 W/m² | - |
| 1777813436 | 11.67° C | 66% | 1018.8 hPa | 0 mm | - | 175 W/m² | - |
| 1777813134 | 11.11° C | 68% | 1018.9 hPa | 0 mm | - | 48 W/m² | - |
| 1777812832 | 11.11° C | 68% | 1019 hPa | 0 mm | - | 35 W/m² | - |
| 1777812528 | 11.11° C | 69% | 1019.1 hPa | 0 mm | - | 117 W/m² | - |
* Rain latest hour (hover to see other rain measurements)
** Current wind speed in m/s (hover to see current wind gust speed)